User: anonymous   Login
Location: Albany
(35.0000°S, 118.0000°E)
Time: 17:43:23
(UTC-05:00)
Language:

Centaur D-1AR AC-48 - Orbit

View from above orbital plane
View from above orbital plane
View from above satellite
View from above satellite

Ground track
Ground track

The orbit data is extracted from the following two-line orbital elements,

1 10779U 78035B   15060.29972271 -.00000074  00000-0  10803-2 0  9994
2 10779 021.9141 000.8113 7177581 215.2722 354.3707 02.22634983299990
Epoch (UTC): 01 March 2015 07:11:36
Eccentricity: 0.7177581
inclination: 21.9141°
perigee height: 614 km
apogee height: 36178 km
right ascension of ascending node: 0.8113°
argument of perigee: 215.2722°
revolutions per day: 2.22634983
mean anomaly at epoch: 354.3707°
orbit number at epoch: 29999

The dashed part of the orbit path shows where the satellite is in the earth's shadow,  

DLR